DW7287 Weather Reports


time (UTC)temp
C
wind
direction
speed
KPH
gust
KPH
rain 1hr
cm
rain 24hr
cm
rain mn
cm
humidity
%
barometer
mb
20260502194556 11 360 6.4 20.9 0.00 0.03 0.00 41 1015.1
20260502193050 11 360 4.8 22.5 0.00 0.03 0.00 42 1015.1
20260502191553 11 360 4.8 19.3 0.00 0.03 0.00 40 1015.4
20260502190052 11 360 3.2 19.3 0.00 0.03 0.00 44 1015.4
20260502184553 11 360 8.0 19.3 0.00 0.03 0.00 43 1015.6
20260502183058 11 360 6.4 14.5 0.00 0.03 0.00 41 1015.7
20260502181554 11 360 3.2 14.5 0.00 0.03 0.00 45 1015.7
20260502163055 11 360 3.2 17.7 0.00 0.03 0.00 44 1016.4
20260502161557 11 360 6.4 17.7 0.00 0.03 0.00 44 1016.4
20260502151610 11 360 4.8 19.3 0.00 0.03 0.00 43 1016.7
20260502150107 11 360 8.0 17.7 0.00 0.03 0.00 51 1016.9
20260502123051 5 360 0.0 4.8 0.00 0.03 0.00 94 1016.7
20260502121554 3 0 0.0 0.0 0.00 0.03 0.00 95 1017.0
20260502120111 2 0 0.0 0.0 0.00 0.03 0.00 94 1016.9
20260502114601 1 0 0.0 0.0 0.00 0.03 0.00 94 1016.8
20260502113057 0 0 0.0 0.0 0.00 0.03 0.00 93 1016.7
20260502111559 0 0 0.0 0.0 0.00 0.03 0.00 92 1016.6
20260502110055 0 0 0.0 0.0 0.00 0.03 0.00 92 1016.6
20260502104558 0 0 0.0 0.0 0.00 0.03 0.00 92 1016.5
20260502103101 0 0 0.0 0.0 0.00 0.03 0.00 92 1016.8
20260502101554 0 0 0.0 0.0 0.00 0.03 0.00 91 1016.8
20260502100112 0 0 0.0 0.0 0.00 0.03 0.00 92 1016.7
20260502070057 1 0 0.0 0.0 0.00 0.03 0.00 90 1016.5
20260502064606 1 0 0.0 0.0 0.00 0.03 0.00 89 1016.5
20260502063052 1 0 0.0 0.0 0.00 0.03 0.00 88 1016.8
20260502061554 2 0 0.0 0.0 0.00 0.03 0.00 88 1017.0
20260502060058 2 0 0.0 0.0 0.00 0.03 0.00 88 1017.1
20260502054552 2 0 0.0 0.0 0.00 0.03 0.00 87 1017.3
20260502053053 2 0 0.0 0.0 0.00 0.03 0.00 87 1017.2
20260502051634 3 0 0.0 0.0 0.00 0.03 0.00 87 1017.1
20260502050059 3 0 0.0 0.0 0.00 0.03 0.00 87 1017.2
20260502044602 3 0 0.0 1.6 0.00 0.03 0.00 87 1017.4
20260502043054 3 0 0.0 1.6 0.00 0.03 0.00 85 1017.5
20260502041555 4 0 0.0 0.0 0.00 0.03 0.00 83 1017.5
20260502040058 5 0 0.0 0.0 0.00 0.03 0.00 83 1017.2
20260502034555 5 0 0.0 0.0 0.00 0.03 0.03 81 1017.0
20260502033055 5 0 0.0 1.6 0.00 0.03 0.03 81 1017.1
20260502031609 6 0 0.0 4.8 0.00 0.03 0.03 79 1017.2
20260502030056 6 0 0.0 3.2 0.00 0.03 0.03 77 1017.3
20260502024557 7 0 0.0 3.2 0.00 0.03 0.03 75 1017.3
20260502023055 7 360 0.0 0.0 0.00 0.03 0.03 73 1016.8
20260502021556 7 0 0.0 0.0 0.00 0.03 0.03 71 1016.5
20260502020105 8 0 0.0 3.2 0.00 0.03 0.03 70 1016.3
20260502014556 8 0 0.0 8.0 0.00 0.03 0.03 69 1016.2
20260502013055 8 360 1.6 9.7 0.00 0.03 0.03 68 1016.0
20260502011555 9 360 4.8 16.1 0.00 0.03 0.03 67 1015.7
20260502010058 9 360 4.8 17.7 0.00 0.03 0.03 65 1015.4
20260502004555 10 360 4.8 14.5 0.00 0.03 0.03 64 1015.0
20260502003055 10 360 6.4 19.3 0.00 0.03 0.03 64 1015.0
20260502001559 10 360 1.6 16.1 0.00 0.03 0.03 66 1014.7
20260502000054 10 360 6.4 22.5 0.00 0.03 0.03 69 1014.2
20260501234556 10 0 0.0 3.2 0.00 0.03 0.03 75 1013.8
20260501233059 10 0 0.0 3.2 0.00 0.03 0.03 74 1013.6
20260501231600 10 0 0.0 4.8 0.00 0.03 0.03 73 1013.4
20260501230055 10 0 0.0 3.2 0.00 0.03 0.03 74 1013.4
20260501224557 10 0 0.0 3.2 0.00 0.03 0.03 74 1013.6
20260501223059 10 0 0.0 1.6 0.00 0.03 0.03 76 1013.6
20260501221551 10 0 1.6 9.7 0.00 0.03 0.03 74 1013.3
20260501220055 10 360 3.2 9.7 0.00 0.03 0.03 73 1013.8
20260501214603 11 360 3.2 9.7 0.00 0.03 0.03 73 1013.6
20260501213100 11 360 1.6 17.7 0.00 0.03 0.03 70 1013.2
20260501211551 11 360 3.2 20.9 0.00 0.03 0.03 71 1013.2
20260501210054 11 360 4.8 17.7 0.00 0.03 0.03 71 1013.0
20260501204549 12 360 8.0 32.2 0.00 0.03 0.03 73 1013.1
20260501203053 12 360 9.7 22.5 0.03 0.03 0.03 74 1012.7
20260501201552 12 360 3.2 12.9 0.03 0.03 0.03 77 1012.6
20260501200054 12 360 4.8 12.9 0.03 0.03 0.03 75 1012.5